User: anonymous   Login
Location: Coffee Creek Observatory
(38.8077°N, 94.7179°W)
Time: 13:53:03
(UTC-05:00)
Language:

Lacrosse 4 Rocket - Orbit

View from above orbital plane
View from above orbital plane
View from above satellite
View from above satellite

Ground track
Ground track

The orbit data is extracted from the following two-line orbital elements,

1 26474U 00047B   16275.14562881  .00000488  00000-0  53715-4 0  9995
2 26474  67.9944 204.6772 0061603 249.7217 109.7297 14.95292613876659
Epoch (UTC): 01 October 2016 03:29:42
Eccentricity: 0.0061603
inclination: 67.9944°
perigee height: 538 km
apogee height: 624 km
right ascension of ascending node: 204.6772°
argument of perigee: 249.7217°
revolutions per day: 14.95292613
mean anomaly at epoch: 109.7297°
orbit number at epoch: 87665

The dashed part of the orbit path shows where the satellite is in the earth's shadow,  

DLR